[[{"header":{"parameterUnit":"m.s-1","parameterCategory":1,"la1":30.2991,"la2":30.254,"lo1":-89.0895,"lo2":-89.0444,"dy":0.0017,"dx":0.0017,"nx":28,"ny":28,"refTime":"2024-03-20T21:00:00:Z","depth":0,"parameterNumber":2,"parameterNumberName":"U-component_of_WINDS"},"data":[0,0,0,0,0,0,0,0,0,0,0,0,0,0,0,0,0,0,0,0,0,0,0,0,0,0,0,0,0,0,0,0,0,0,0,0,0,0,0,0,0,0,0,0,0,0,0,0,0,0,0,0,0,0,0,0,0,0,-2.0205,-2.0205,0,-2.0168,-2.0168,-2.0168,-2.0073,-2.0071,-2.0069,-2.0067,-2.0032,-2.0033,-2.0034,0,0,0,0,0,0,0,0,0,0,0,0,0,-2.0197,-2.0197,-2.0205,-2.0205,-2.0204,-2.0168,-2.0168,-2.0167,-2.0074,-2.0071,-2.0069,-2.0066,-2.0032,-2.0033,-2.0034,0,0,0,0,0,0,0,0,0,0,0,0,0,-2.0184,-2.0197,-2.0205,-2.0153,-2.0148,-2.0169,-2.0168,-2.0167,-2.0074,-2.0071,-2.0068,-2.0065,-2.0031,-2.0033,-2.0034,-2.0103,0,0,-2.0038,-2.0039,0,0,0,0,0,0,0,0,-2.0185,-2.0185,-2.0161,-2.0157,-2.0151,-2.0122,-2.0152,-2.0146,-2.0075,-2.0102,-2.0067,-2.0064,-2.0065,-2.0063,-2.0063,-2.0101,-2.01,-2.0038,-2.0039,-2.004,-2.004,0,0,0,0,0,0,0,-2.0186,-2.0186,-2.0191,-2.0161,-2.0155,-2.0132,-2.0127,-2.015,-2.0101,-2.01,-2.0093,-2.0089,-2.0061,-2.0062,-2.0061,-2.0099,-2.0038,-2.0039,-2.004,-2.0041,-2.0193,-2.0196,0,0,0,0,0,0,-2.0194,-2.0187,-2.0192,-2.0189,-2.0161,-2.0135,-2.0129,-2.0135,-2.01,-2.0092,-2.0092,-2.0085,-2.0061,-2.006,-2.006,-2.0138,-2.004,-2.0041,-2.0042,-2.019,-2.0194,-2.0197,0,0,0,0,0,0,-2.0194,-2.0195,-2.0193,-2.0186,-2.0184,-2.0138,-2.0145,-2.0135,-2.0136,-2.0095,-2.0085,-2.0101,-2.0058,-2.0058,-2.0093,-2.0135,-2.0042,-2.0043,-2.0186,-2.0191,-2.0195,-2.0295,0,0,0,0,0,0,-2.0194,-2.0196,-2.0221,-2.0188,-2.0185,-2.0226,-2.0148,-2.0137,-2.0138,-2.0129,-2.0101,-2.0093,-2.0056,-2.0091,-2.0094,-2.0136,-2.0044,-2.0182,-2.0188,-2.0194,-2.0288,-2.0303,-2.0316,0,0,0,0,0,-2.0194,-2.0251,-2.0223,-2.0224,-2.0215,-2.0229,-2.0228,-2.0183,-2.0142,-2.0167,-2.0141,-2.0094,-2.0131,-2.0096,-2.0098,-2.0141,-2.0179,-2.0186,-2.0193,-2.0282,-2.03,-2.0316,0,0,0,0,0,0,-2.0291,-2.0246,-2.0214,-2.0261,-2.025,-2.0213,-2.0243,-2.0203,-2.0204,-2.0195,-2.014,-2.0135,-2.0177,-2.0163,-2.0124,-2.0206,-2.0147,-2.0155,-2.0214,-2.0231,-2.0244,-2.0247,-2.0045,0,0,0,0,0,-2.0318,-2.0332,-2.0292,-2.0338,-2.0333,-2.029,-2.0294,-2.026,-2.0247,-2.0241,-2.0218,-2.0207,-2.0215,-2.0222,-2.0228,-2.0286,-2.0279,-2.0317,-2.0331,-2.0342,-2.035,-2.0379,-2.0396,-2.0221,-2.0221,-2.022,0,0,-2.0373,-2.035,-2.0362,-2.0356,-2.0343,-2.036,-2.0286,-2.0307,-2.0319,-2.0245,-2.0276,-2.0259,-2.0243,-2.029,-2.0309,-2.0279,-2.0397,-2.0351,-2.0361,-2.0362,-2.0388,-2.0405,-2.042,-2.0226,-2.0225,-2.0224,0,0,-2.0482,-2.0466,-2.0502,-2.0491,-2.0473,-2.0443,-2.0453,-2.0422,-2.0408,-2.0438,-2.0383,-2.0398,-2.0414,-2.0405,-2.0402,-2.051,-2.0468,-2.0514,-2.0586,-2.0616,-2.063,-2.0641,-2.068,-2.0694,-2.0522,-2.0522,-2.0522,0,-2.0553,-2.0575,-2.0526,-2.0551,-2.055,-2.0484,-2.052,-2.0512,-2.0497,-2.0498,-2.0465,-2.0484,-2.0469,-2.0513,-2.0539,-2.054,-2.0548,-2.0516,-2.0631,-2.0643,-2.0653,-2.0689,-2.0704,-2.0528,-2.0527,-2.0526,-2.0526,0,-2.0664,-2.068,-2.0712,-2.0698,-2.0701,-2.0732,-2.0689,-2.0698,-2.0665,-2.064,-2.0672,-2.0652,-2.0653,-2.0661,-2.0629,-2.0701,-2.0682,-2.0641,-2.0581,-2.0677,-2.0709,-2.0723,-2.0536,-2.0534,-2.0532,-2.0531,0,0,-2.0831,-2.0791,-2.0803,-2.0796,-2.0772,-2.0784,-2.0813,-2.0813,-2.0822,-2.0814,-2.0837,-2.0853,-2.0814,-2.0812,-2.0779,-2.0805,-2.0892,-2.076,-2.0759,-2.0785,-2.097,-2.1001,-2.1017,-2.0864,-2.0866,-2.0868,-2.0971,0,-2.0933,-2.0978,-2.0935,-2.0989,-2.1004,-2.0942,-2.0967,-2.0955,-2.0933,-2.0943,-2.0919,-2.0931,-2.088,-2.0878,-2.0901,-2.0876,-2.0928,-2.0869,-2.0885,-2.0886,-2.0889,-2.1034,-2.1066,-2.1164,-2.0984,-2.0986,-2.0987,0,-2.1057,-2.1055,-2.111,-2.1083,-2.1088,-2.111,-2.1108,-2.1118,-2.1104,-2.1086,-2.1085,-2.1044,-2.1071,-2.1013,-2.105,-2.101,-2.1015,-2.1004,-2.1007,-2.1006,-2.0942,-2.1037,-2.1194,-2.1209,-2.1007,-2.1006,-2.1004,0,-2.1173,-2.1184,-2.1218,-2.1215,-2.1184,-2.1201,-2.119,-2.1173,-2.1176,-2.1174,-2.1176,-2.1178,-2.1179,-2.1182,-2.1143,-2.1105,-2.1185,-2.1124,-2.1171,-2.1172,-2.119,-2.1189,-2.135,-2.1195,-2.1194,-2.1194,-2.1194,0,-2.1291,-2.1327,-2.127,-2.1291,-2.133,-2.1282,-2.1322,-2.1304,-2.129,-2.1307,-2.1254,-2.1272,-2.1221,-2.1233,-2.1204,-2.1238,-2.124,-2.1226,-2.1218,-2.123,-2.1232,-2.1231,-2.1223,-2.1198,-2.1197,-2.1196,-2.1196,0,-2.1425,-2.1389,-2.1422,-2.1391,-2.1384,-2.1414,-2.1387,-2.1406,-2.1381,-2.1403,-2.1406,-2.1367,-2.1379,-2.1342,-2.1348,-2.1328,-2.1379,-2.136,-2.1383,-2.1377,-2.1426,-2.1422,-2.1591,-2.1611,-2.1445,-2.1447,-2.1448,0,-2.1502,-2.1528,-2.15,-2.1507,-2.1498,-2.1511,-2.1514,-2.1469,-2.1474,-2.1461,-2.1482,-2.149,-2.1493,-2.1516,-2.1488,-2.1493,-2.1473,-2.1533,-2.1474,-2.1486,-2.1473,-2.1472,-2.1474,-2.1544,-2.1546,-2.1548,-2.1549,0,-2.1642,-2.1623,-2.1629,-2.1629,-2.1635,-2.1633,-2.1628,-2.1637,-2.1589,-2.1598,-2.1609,-2.1612,-2.1619,-2.1627,-2.1626,-2.1615,-2.1575,-2.1569,-2.158,-2.1592,-2.1604,-2.1598,-2.1416,-2.1564,-2.1563,-2.1562,-2.1561,-2.156,-2.1749,-2.1769,-2.1753,-2.1762,-2.1753,-2.175,-2.1766,-2.1744,-2.1752,-2.1753,-2.1727,-2.1744,-2.1731,-2.1726,-2.1719,-2.1732,-2.1705,-2.1721,-2.1725,-2.1729,-2.1737,-2.1603,-2.1732,-2.1732,-2.1731,-2.1731,-2.1731,0,-2.1885,-2.1872,-2.1881,-2.1875,-2.1883,-2.1844,-2.1837,-2.1846,-2.1862,-2.1853,-2.1858,-2.1872,-2.188,-2.1854,-2.1859,-2.1875,-2.1857,-2.1878,-2.1875,-2.1874,-2.1762,-2.1751,-2.1893,-2.1892,-2.1892,-2.1892,-2.1892,-2.1892,-2.1957,-2.199,-2.1969,-2.1998,-2.1984,-2.2,-2.2,-2.1997,-2.1989,-2.2007,-2.2014,-2.1997,-2.1982,-2.1985,-2.1992,-2.1984,-2.1988,-2.2016,-2.2002,-2.1897,-2.1881,-2.1866,-2.1856,-2.2017,-2.2017,-2.2112,-2.2113,-2.2113]},{"header":{"parameterUnit":"m.s-1","parameterCategory":1,"la1":30.2991,"la2":30.254,"lo1":-89.0895,"lo2":-89.0444,"dy":0.0017,"dx":0.0017,"nx":28,"ny":28,"refTime":"2024-03-20T21:00:00:Z","depth":0,"parameterNumber":3,"parameterNumberName":"V-component_of_WINDS"},"data":[0,0,0,0,0,0,0,0,0,0,0,0,0,0,0,0,0,0,0,0,0,0,0,0,0,0,0,0,0,0,0,0,0,0,0,0,0,0,0,0,0,0,0,0,0,0,0,0,0,0,0,0,0,0,0,0,0,0,0.9468,0.9467,0,0.9387,0.9386,0.9385,0.9369,0.9369,0.937,0.9371,0.9281,0.9278,0.9276,0,0,0,0,0,0,0,0,0,0,0,0,0,0.9605,0.9603,0.9468,0.9467,0.9466,0.9387,0.9386,0.9385,0.9368,0.9369,0.937,0.9371,0.9282,0.9279,0.9275,0,0,0,0,0,0,0,0,0,0,0,0,0,0.9537,0.9602,0.9468,0.9449,0.9446,0.9387,0.9386,0.9384,0.9368,0.9369,0.937,0.9371,0.9284,0.9279,0.9275,0.9228,0,0,0.9261,0.9259,0,0,0,0,0,0,0,0,0.9541,0.9532,0.9453,0.945,0.9447,0.9389,0.9401,0.9332,0.9368,0.9398,0.9371,0.9372,0.9316,0.9309,0.9291,0.9224,0.922,0.9261,0.9258,0.9256,0.9255,0,0,0,0,0,0,0,0.9546,0.9535,0.9436,0.9451,0.9448,0.9443,0.9434,0.9388,0.9352,0.9395,0.9394,0.9385,0.9315,0.9296,0.9289,0.9219,0.9261,0.9257,0.9254,0.9252,0.911,0.9108,0,0,0,0,0,0,0.9554,0.9539,0.9438,0.9433,0.9497,0.9439,0.943,0.9407,0.9353,0.9346,0.9384,0.9384,0.9303,0.9294,0.9286,0.9228,0.9256,0.9252,0.9249,0.9111,0.9109,0.9108,0,0,0,0,0,0,0.9557,0.9546,0.9442,0.9486,0.9472,0.9436,0.941,0.9404,0.9386,0.9344,0.9337,0.9372,0.9303,0.9292,0.9243,0.9225,0.925,0.9246,0.9112,0.911,0.9109,0.9112,0,0,0,0,0,0,0.9561,0.9547,0.9529,0.9486,0.947,0.9401,0.9409,0.9402,0.9379,0.9378,0.9331,0.9324,0.9303,0.925,0.9239,0.9219,0.9242,0.9113,0.9111,0.9109,0.9113,0.9111,0.9108,0,0,0,0,0,0.9566,0.9532,0.9529,0.9517,0.9448,0.94,0.9391,0.937,0.9377,0.9359,0.9333,0.9325,0.9229,0.9245,0.9232,0.9211,0.9114,0.9112,0.9109,0.9115,0.9111,0.9109,0,0,0,0,0,0,0.9572,0.9526,0.9522,0.9472,0.9441,0.9398,0.9374,0.9367,0.9331,0.9332,0.9305,0.9294,0.9247,0.9224,0.9243,0.9164,0.9172,0.9167,0.918,0.9177,0.9174,0.9181,0.9239,0,0,0,0,0,0.9568,0.9535,0.9496,0.9456,0.9441,0.941,0.9389,0.9375,0.9341,0.9327,0.9297,0.9262,0.9224,0.9199,0.9162,0.911,0.91,0.909,0.9087,0.9085,0.9081,0.9053,0.9048,0.91,0.91,0.91,0,0,0.9558,0.9529,0.9509,0.9457,0.943,0.9396,0.9399,0.9361,0.9335,0.932,0.9273,0.925,0.9209,0.9159,0.9136,0.9138,0.9065,0.9082,0.9081,0.9077,0.905,0.9045,0.9041,0.9098,0.9098,0.9099,0,0,0.9523,0.9498,0.9463,0.9437,0.9399,0.9379,0.9371,0.9329,0.9314,0.9267,0.9255,0.9223,0.9158,0.913,0.9107,0.9064,0.9055,0.9052,0.9039,0.9012,0.9008,0.9004,0.8989,0.8984,0.9048,0.9048,0.9048,0,0.9515,0.9464,0.9445,0.9409,0.9386,0.9374,0.9337,0.9313,0.9263,0.9247,0.9252,0.9171,0.9143,0.9087,0.9077,0.9058,0.9047,0.9057,0.901,0.9006,0.9002,0.8987,0.8982,0.9048,0.9048,0.9048,0.9048,0,0.9456,0.9421,0.9397,0.9353,0.9327,0.9291,0.9265,0.9241,0.9231,0.9211,0.9163,0.9129,0.9085,0.9071,0.9058,0.9013,0.9016,0.9016,0.9023,0.8998,0.8983,0.8977,0.9048,0.9048,0.9048,0.9048,0,0,0.942,0.9368,0.9359,0.934,0.9297,0.9269,0.9232,0.9192,0.9172,0.9139,0.9107,0.9053,0.9054,0.9028,0.9013,0.8989,0.8958,0.8992,0.899,0.8987,0.8906,0.8906,0.89,0.8953,0.8952,0.8951,0.8909,0,0.938,0.9317,0.9299,0.9245,0.9212,0.9201,0.9169,0.9139,0.912,0.9088,0.9066,0.9029,0.9031,0.9016,0.8992,0.8967,0.8941,0.8969,0.8922,0.892,0.8932,0.8892,0.8892,0.8855,0.8904,0.8903,0.8902,0,0.9324,0.9293,0.9236,0.92,0.9185,0.9157,0.912,0.909,0.9056,0.9043,0.9016,0.9003,0.8964,0.8975,0.892,0.894,0.892,0.8904,0.8902,0.8896,0.8909,0.8885,0.8842,0.8837,0.8893,0.8893,0.8894,0,0.9304,0.9247,0.9207,0.919,0.9146,0.9127,0.9108,0.9075,0.9052,0.9018,0.9003,0.8965,0.8944,0.8914,0.8891,0.8901,0.8838,0.8847,0.8826,0.8827,0.8813,0.8814,0.8766,0.88,0.88,0.88,0.88,0,0.9261,0.9227,0.9198,0.9172,0.9134,0.9114,0.9075,0.9055,0.9026,0.8996,0.8983,0.8955,0.8927,0.8895,0.8877,0.8835,0.8825,0.8813,0.8808,0.8814,0.8815,0.88,0.8802,0.8799,0.8799,0.8799,0.88,0,0.9231,0.9211,0.9166,0.9129,0.9119,0.9092,0.906,0.9035,0.9016,0.8978,0.8968,0.8937,0.8899,0.8874,0.8824,0.8812,0.8766,0.8762,0.8778,0.8776,0.8756,0.8759,0.8696,0.8687,0.8728,0.8727,0.8727,0,0.9205,0.9179,0.9141,0.9121,0.9102,0.907,0.9048,0.9027,0.9004,0.8965,0.8944,0.8905,0.8873,0.8812,0.8784,0.8746,0.8742,0.8722,0.8735,0.8742,0.8741,0.8743,0.8741,0.872,0.872,0.8719,0.8719,0,0.9161,0.9152,0.9122,0.9088,0.9063,0.9034,0.9006,0.899,0.8964,0.8939,0.8901,0.8876,0.8827,0.8789,0.8749,0.8727,0.8719,0.8716,0.8709,0.8714,0.8724,0.8719,0.8772,0.8717,0.8717,0.8717,0.8717,0.8717,0.9132,0.9109,0.9079,0.9046,0.9023,0.8997,0.8972,0.8952,0.892,0.888,0.8869,0.883,0.8797,0.8743,0.8721,0.8689,0.8691,0.868,0.8678,0.8676,0.8676,0.873,0.8681,0.8681,0.8681,0.8681,0.8681,0,0.9087,0.9068,0.9038,0.9,0.8974,0.8971,0.894,0.8918,0.8884,0.8855,0.8825,0.8781,0.8745,0.8715,0.8677,0.8657,0.8652,0.8648,0.8649,0.8644,0.8676,0.8686,0.8652,0.8652,0.8652,0.8652,0.8652,0.8652,0.9061,0.9022,0.9011,0.896,0.8941,0.8904,0.8886,0.8862,0.884,0.8793,0.8763,0.8745,0.8716,0.8676,0.8642,0.8634,0.862,0.8617,0.8608,0.8638,0.8641,0.8644,0.8654,0.8614,0.8614,0.8579,0.8578,0.8578]}]]